リード彗星

238P/Read (2005)

English version
Home page
Updated on August 4, 2010

---------------------------------------------------------------------

・ プロフィール

符号 238P/2005 U1
発見日 2005年10月24日
発見光度 20.2等
発見者 Michael T. Read (Spacewatch)

・ 軌道要素

Epoch 2005 July 9.0 TT = JDT 2453560.5
T 2005 July 27.88961 TT                                 MPC
q   2.3647335            (2000.0)            P               Q
n   0.17507375     Peri.  325.78172     +0.95399499     -0.29932138
a   3.1646233      Node    51.64463     +0.27978833     +0.86798888
e   0.2527599      Incl.    1.26618     +0.10775919     +0.39623480
P   5.63

・ 光度変化

        m1 = 14.5 + 5 logΔ + 10.0 log r

---------------------------------------------------------------------

軌道要素はM.P.E.C. 2010-O44に掲載されたものです。
光度グラフはComet for Windowsで作成したものです。

---------------------------------------------------------------------

Copyright(C) Seiichi Yoshida (comet@aerith.net). All rights reserved.